Location: Ash Swamp
(41.5170°N, 74.6157°W)
Time: 02:31:42
(UTC+00:00)

Cosmos 1833 Rocket - Pass Details

Date: 14 July 2020
Orbit: 832 x 840 km, 71.0° (Epoch: 14 August)

Event Time Altitude Azimuth Distance (km) Brightness Sun altitude
Exits shadow 07:31:33 28° 243° (WSW) 1,502 3.5 -18.3°
Maximum altitude 07:34:04 47° 299° (WNW) 1,096 3.2 -18.0°
Drops below altitude 10° 07:39:29 10° 13° (NNE) 2,451 6.1 -17.4°
Sets 07:42:02 0° 20° (NNE) 3,390 7.2 -17.1°
